Weather observations for the past three days for
Anaktuvuk Pass, Anaktuvuk Pass Airport
Imperial (Metric)
Date Time (akdt) Wind (mph) Vis. (mi.) Weather Sky Cond. Temperature (ºF) Relative Humidity Wind Chill (°F) Heat Index (°F) Pressure Precipitation (in)
Air Dwpt 6 hour altimeter (in) sea level (mb) 1 hr 3 hr 6 hr
Max. Min.
15 15:56 SW 9 G 20 10.00 Light Rain BKN037 OVC046 52 42.1 53.1 48 69% 29.67 1007.1 0.01 0.02
15 14:56 S 7 10.00 Light Rain SCT026 BKN036 OVC050 51.1 45 80% 29.66 1006.7 0.01
15 12:56 SW 12 10.00 Overcast BKN032 OVC040 50 42.1 74% 46 29.64 1005.8
15 11:56 SW 12 G 17 10.00 Mostly Cloudy BKN026 BKN050 BKN060 51.1 43 74% 29.62 1005.0
15 10:56 SW 10 10.00 Light Rain FEW021 BKN031 OVC041 48.9 45 86% 45 29.6 1004.6
15 09:56 SW 7 10.00 Light Rain FEW034 OVC045 50 46 53.1 48 86% 48 29.58 1003.6 0.02 0.02
15 08:56 S 5 10.00 Overcast OVC060 53.1 44.1 72% 29.56 1003.0
15 07:56 Calm 10.00 Overcast FEW047 OVC060 51.1 43 74% 29.56 1003.1
15 06:56 SE 3 10.00 Overcast OVC060 48.9 44.1 83% 29.56 1002.8
15 05:56 Calm 10.00 Mostly Cloudy BKN065 48.9 43 80% 29.56 1002.8
15 04:56 S 7 10.00 Overcast OVC050 48.9 44.1 83% 46 29.55 1002.7
15 03:56 S 6 10.00 Fair CLR 48 43 55 46.9 83% 46 29.54 1002.4
15 02:56 S 5 10.00 A Few Clouds FEW060 46.9 44.1 90% 45 29.53 1002.1
15 00:56 S 9 10.00 Overcast SCT035 BKN047 OVC060 52 46 80% 29.51 1001.2
14 23:56 S 6 10.00 Overcast OVC055 52 46.9 83% 29.49 1000.6
14 22:56 SW 8 10.00 Mostly Cloudy SCT037 BKN055 54 48 80% 29.48 1000.1
14 21:56 S 8 10.00 Overcast OVC036 55 48.9 57.9 54 80% 29.47 999.7
14 20:56 SW 9 10.00 Overcast FEW044 OVC055 55 50 83% 29.46 999.3
14 19:56 SW 12 10.00 Overcast FEW043 BKN050 OVC120 55 50 83% 29.45 999.1
14 18:56 SW 10 10.00 Mostly Cloudy BKN120 57.9 51.1 78% 29.44 998.5
14 17:56 S 10 10.00 Overcast OVC065 57 51.1 81% 29.44 998.6
14 16:56 SW 10 10.00 Light Rain BKN026 BKN033 OVC060 55 51.1 87% 29.44 998.7
14 15:56 SW 9 10.00 Overcast OVC030 55 51.1 57 53.1 87% 29.43 998.6 0.01
14 14:56 SW 14 G 18 9.00 Overcast BKN012 BKN029 OVC042 55 52 90% 29.43 998.4
14 13:56 S 5 10.00 Overcast BKN011 BKN029 OVC065 55 52 90% 29.42 998.0 0.01
14 12:56 S 5 9.00 Light Rain SCT012 OVC035 55 52 90% 29.41 997.8
14 11:56 NE 7 10.00 Overcast OVC045 55 52 90% 29.41 997.5
14 10:56 Vrbl 3 10.00 Light Rain FEW005 OVC045 54 52 93% 29.42 997.8
14 09:56 NE 9 10.00 Light Rain SCT003 BKN029 OVC044 53.1 52 53.1 51.1 96% 29.42 997.9 0.01 0.03
14 08:56 NE 5 10.00 Light Rain FEW003 OVC055 52 51.1 97% 29.42 998.1 0.01
14 06:56 Calm 10.00 Light Rain SCT048 BKN060 OVC075 52 50 93% 29.44 998.6 0.01 0.01
14 00:56 NE 8 10.00 Overcast OVC055 55 46.9 74% 29.48 999.9
13 23:56 E 7 10.00 Overcast SCT070 OVC100 57 46 67% 29.49 1000.1
13 22:56 NE 5 10.00 Overcast OVC060 57 48 72% 29.5 1000.6
13 21:56 N 3 10.00 Overcast FEW050 OVC070 57 50 63 57 78% 29.51 1001.0
13 19:56 Calm 10.00 Overcast BKN080 OVC095 62.1 45 54% 29.53 1001.4
13 18:56 Calm 10.00 Light Rain OVC075 62.1 45 54% 29.54 1002.0
13 17:56 S 5 10.00 Partly Cloudy SCT085 63 44.1 50% 29.56 1002.5
13 16:56 SW 8 10.00 A Few Clouds FEW080 61 45 56% 29.57 1003.0
13 15:56 SW 6 10.00 Mostly Cloudy FEW049 SCT055 BKN070 60.1 46 63 57 60% 29.59 1003.7
13 14:56 W 8 10.00 Overcast SCT049 OVC060 62.1 45 54% 29.59 1003.6
13 13:56 SW 9 10.00 Mostly Cloudy BKN047 BKN060 60.1 45 58% 29.59 1003.9
13 12:56 SW 8 10.00 Overcast BKN046 OVC055 59 45 60% 29.6 1004.2
13 11:56 SW 6 10.00 Overcast OVC039 57.9 45 62% 29.6 1004.1
13 10:56 W 10 G 17 10.00 Overcast BKN037 OVC046 57 46.9 69% 29.59 1003.8
13 09:56 S 10 G 17 10.00 Mostly Cloudy BKN041 57 50 57 50 78% 29.59 1003.6 0.08
13 08:56 SW 13 10.00 Mostly Cloudy BKN048 54 46.9 77% 29.6 1003.8
13 07:56 S 8 10.00 Overcast FEW050 OVC085 53.1 48 83% 29.61 1004.0
13 06:56 Calm 10.00 Light Rain FEW035 BKN047 OVC065 51.1 48.9 92% 29.61 1004.4 0.02 0.08
13 05:56 S 8 10.00 Light Rain BKN033 OVC042 51.1 48 89% 29.62 1004.4 0.03
13 04:56 SW 15 G 24 7.00 Rain BKN038 OVC049 52 46.9 83% 29.62 1004.5 0.03
13 03:56 Calm 10.00 Mostly Cloudy SCT050 BKN065 BKN090 54 48 60.1 50 80% 29.6 1003.8
13 02:56 Vrbl 3 10.00 Light Rain SCT060 OVC080 53.1 46.9 80% 29.62 1004.6
13 01:56 Calm 10.00 Mostly Cloudy FEW075 BKN100 50 46 86% 29.62 1004.5
13 00:56 Calm 10.00 Fair CLR 51.1 45 80% 29.62 1004.7
12 23:56 Calm 10.00 A Few Clouds FEW060 54 48 80% 29.64 1005.5
12 22:56 Calm 10.00 Partly Cloudy SCT065 57 48.9 74% 29.65 1005.8
12 21:56 S 5 10.00 Mostly Cloudy SCT065 BKN100 60.1 46.9 66.9 60.1 62% 29.67 1006.3
12 20:56 W 7 10.00 A Few Clouds FEW110 64 46.9 54% 29.68 1006.3
12 19:56 Calm 10.00 Partly Cloudy SCT080 SCT095 64.9 44.1 47% 29.69 1007.0
12 18:56 S 5 10.00 Light Rain OVC060 62.1 46.9 58% 29.71 1007.9
12 17:56 SW 7 10.00 A Few Clouds FEW095 66.9 43 42% 29.72 1008.0
12 16:56 S 7 10.00 Mostly Cloudy BKN065 64.9 44.1 47% 29.75 1008.9
Date Time (akdt) Wind (mph) Vis. (mi.) Weather Sky Cond. Air Dwpt Max. Min. Relative Humidity Wind Chill (°F) Heat Index (°F) altimeter (in) sea level (mb) 1 hr 3 hr 6 hr
6 hour
Temperature (ºF) Pressure Precipitation (in)